[[{"header":{"parameterUnit":"m.s-1","parameterCategory":1,"la1":30.2991,"la2":30.254,"lo1":-89.0895,"lo2":-89.0444,"dy":0.0017,"dx":0.0017,"nx":28,"ny":28,"refTime":"2023-08-23T03:00:00:Z","depth":0,"parameterNumber":2,"parameterNumberName":"U-component_of_WINDS"},"data":[0,0,0,0,0,0,0,0,0,0,0,0,0,0,0,0,0,0,0,0,0,0,0,0,0,0,0,0,0,0,0,0,0,0,0,0,0,0,0,0,0,0,0,0,0,0,0,0,0,0,0,0,0,0,0,0,0,0,0.9557,0.9557,0,0.9543,0.9543,0.9542,0.9527,0.9526,0.9526,0.9526,0.9511,0.9511,0.9511,0,0,0,0,0,0,0,0,0,0,0,0,0,0.9569,0.9568,0.9557,0.9557,0.9557,0.9543,0.9543,0.9542,0.9527,0.9526,0.9526,0.9526,0.9511,0.9511,0.9511,0,0,0,0,0,0,0,0,0,0,0,0,0,0.956,0.9568,0.9557,0.9547,0.9546,0.9543,0.9543,0.9542,0.9527,0.9526,0.9526,0.9526,0.9511,0.9511,0.9511,0.9516,0,0,0.951,0.951,0,0,0,0,0,0,0,0,0.956,0.956,0.9549,0.9548,0.9547,0.9536,0.9541,0.9534,0.9527,0.9534,0.9526,0.9526,0.952,0.9519,0.9517,0.9516,0.9515,0.951,0.951,0.951,0.951,0,0,0,0,0,0,0,0.9561,0.956,0.9551,0.9548,0.9547,0.9543,0.9541,0.954,0.9529,0.9533,0.9532,0.9531,0.9519,0.9517,0.9516,0.9515,0.951,0.951,0.951,0.951,0.9515,0.9516,0,0,0,0,0,0,0.9563,0.9561,0.9552,0.9551,0.9553,0.9543,0.9541,0.954,0.9529,0.9527,0.9531,0.953,0.9518,0.9517,0.9516,0.952,0.951,0.951,0.9509,0.9515,0.9515,0.9516,0,0,0,0,0,0,0.9564,0.9563,0.9552,0.9555,0.9554,0.9543,0.9542,0.954,0.9538,0.9527,0.9525,0.9531,0.9518,0.9516,0.9516,0.952,0.9509,0.9509,0.9515,0.9515,0.9515,0.953,0,0,0,0,0,0,0.9564,0.9563,0.9565,0.9556,0.9554,0.9553,0.9542,0.954,0.9537,0.9536,0.9527,0.9525,0.9517,0.9516,0.9516,0.9519,0.9509,0.9514,0.9515,0.9515,0.9529,0.9531,0.9532,0,0,0,0,0,0.9564,0.957,0.9566,0.9565,0.9556,0.9553,0.9552,0.9543,0.9538,0.954,0.9533,0.9525,0.9519,0.9516,0.9516,0.9519,0.9514,0.9515,0.9515,0.9528,0.9531,0.9532,0,0,0,0,0,0,0.9581,0.9569,0.9563,0.9566,0.9561,0.9551,0.9553,0.9546,0.9542,0.9541,0.953,0.9528,0.9528,0.9524,0.9521,0.9523,0.9515,0.9516,0.9526,0.9528,0.9529,0.953,0.9509,0,0,0,0,0,0.9585,0.9584,0.9573,0.9577,0.9574,0.9564,0.9562,0.9556,0.955,0.9547,0.954,0.9534,0.9531,0.9529,0.9526,0.9528,0.9525,0.953,0.9532,0.9533,0.9534,0.9533,0.9535,0.9518,0.9518,0.9518,0,0,0.9593,0.9586,0.9586,0.958,0.9575,0.9573,0.9562,0.9561,0.956,0.9547,0.9546,0.9541,0.9533,0.9534,0.9534,0.953,0.9538,0.9534,0.9535,0.9535,0.9534,0.9536,0.9537,0.9518,0.9518,0.9518,0,0,0.9607,0.9602,0.9604,0.9599,0.9591,0.9584,0.9585,0.9575,0.9571,0.957,0.956,0.9557,0.9552,0.9547,0.9544,0.9554,0.9546,0.9553,0.9561,0.9561,0.9562,0.9564,0.9566,0.9567,0.9554,0.9554,0.9554,0,0.9618,0.9615,0.9606,0.9605,0.9601,0.959,0.9591,0.9586,0.9578,0.9576,0.9572,0.9564,0.9558,0.9557,0.9559,0.9557,0.9557,0.9554,0.9563,0.9564,0.9565,0.9567,0.9568,0.9554,0.9554,0.9554,0.9554,0,0.9629,0.9627,0.9629,0.9621,0.9618,0.9618,0.9608,0.9606,0.9599,0.9592,0.959,0.9583,0.9577,0.9576,0.957,0.9574,0.9571,0.9565,0.9558,0.9568,0.9569,0.957,0.9555,0.9555,0.9555,0.9555,0,0,0.9653,0.9638,0.9639,0.9635,0.9625,0.9623,0.9622,0.9616,0.9614,0.9609,0.9607,0.9602,0.9596,0.9592,0.9585,0.9585,0.9592,0.9579,0.9578,0.9581,0.9594,0.9598,0.9599,0.9587,0.9587,0.9587,0.9594,0,0.9664,0.9662,0.9653,0.9653,0.965,0.9638,0.9637,0.9631,0.9624,0.9621,0.9613,0.961,0.9603,0.96,0.9599,0.9591,0.9594,0.9591,0.9585,0.9584,0.9586,0.9601,0.9605,0.9612,0.9595,0.9595,0.9595,0,0.9678,0.9672,0.9672,0.9661,0.9659,0.9659,0.9652,0.9649,0.9641,0.9636,0.9631,0.9623,0.962,0.9613,0.9609,0.9607,0.9603,0.9599,0.9599,0.9598,0.959,0.9599,0.9614,0.9615,0.9597,0.9597,0.9596,0,0.9694,0.9687,0.9685,0.9682,0.9669,0.9669,0.9663,0.9655,0.9651,0.9645,0.9643,0.9636,0.9633,0.9628,0.9617,0.9614,0.9614,0.9607,0.9609,0.9609,0.9609,0.961,0.9624,0.9609,0.9609,0.9609,0.9609,0,0.9707,0.9707,0.9692,0.9691,0.9691,0.968,0.9679,0.9673,0.9665,0.9662,0.9651,0.9649,0.9636,0.9632,0.9624,0.9621,0.9619,0.9615,0.9613,0.9615,0.9616,0.9613,0.9612,0.9609,0.9609,0.9609,0.9609,0,0.9725,0.9715,0.9713,0.9701,0.9698,0.9698,0.9687,0.9685,0.9678,0.9674,0.9672,0.966,0.9654,0.9644,0.9635,0.963,0.9628,0.9625,0.9631,0.9629,0.9632,0.9632,0.9645,0.9646,0.963,0.9631,0.9631,0,0.9734,0.9734,0.9721,0.9719,0.9714,0.9709,0.9706,0.9694,0.969,0.968,0.9679,0.9673,0.9667,0.9658,0.9648,0.9641,0.9637,0.9642,0.9636,0.9638,0.9636,0.9636,0.9635,0.9643,0.9644,0.9644,0.9644,0,0.9751,0.9745,0.974,0.9733,0.9729,0.9723,0.9716,0.9714,0.9701,0.9697,0.9691,0.9686,0.9677,0.967,0.9661,0.9655,0.9647,0.9646,0.9646,0.9649,0.9652,0.9649,0.9634,0.9646,0.9646,0.9645,0.9645,0.9645,0.9764,0.9762,0.9753,0.9747,0.9741,0.9735,0.9732,0.9724,0.9718,0.971,0.9703,0.9697,0.9688,0.9675,0.9669,0.9664,0.966,0.9661,0.9661,0.9661,0.9662,0.9653,0.9663,0.9663,0.9663,0.9662,0.9662,0,0.9779,0.9772,0.9767,0.9757,0.9752,0.9745,0.9737,0.9733,0.9728,0.972,0.9714,0.9706,0.9699,0.9689,0.9681,0.9678,0.9674,0.9677,0.9676,0.9675,0.9666,0.9666,0.968,0.968,0.968,0.968,0.968,0.968,0.9786,0.9783,0.9776,0.9769,0.9763,0.9757,0.9752,0.9746,0.9739,0.9731,0.9725,0.9718,0.9709,0.97,0.9693,0.9689,0.9687,0.969,0.9686,0.9677,0.9676,0.9674,0.9674,0.969,0.969,0.9695,0.9695,0.9695]},{"header":{"parameterUnit":"m.s-1","parameterCategory":1,"la1":30.2991,"la2":30.254,"lo1":-89.0895,"lo2":-89.0444,"dy":0.0017,"dx":0.0017,"nx":28,"ny":28,"refTime":"2023-08-23T03:00:00:Z","depth":0,"parameterNumber":3,"parameterNumberName":"V-component_of_WINDS"},"data":[0,0,0,0,0,0,0,0,0,0,0,0,0,0,0,0,0,0,0,0,0,0,0,0,0,0,0,0,0,0,0,0,0,0,0,0,0,0,0,0,0,0,0,0,0,0,0,0,0,0,0,0,0,0,0,0,0,0,0.2938,0.2938,0,0.2938,0.2938,0.2938,0.293,0.293,0.293,0.293,0.2929,0.293,0.293,0,0,0,0,0,0,0,0,0,0,0,0,0,0.293,0.2931,0.2938,0.2938,0.2938,0.2938,0.2938,0.2938,0.293,0.293,0.293,0.293,0.2929,0.293,0.293,0,0,0,0,0,0,0,0,0,0,0,0,0,0.2932,0.2931,0.2938,0.2934,0.2934,0.2938,0.2938,0.2938,0.293,0.293,0.293,0.2929,0.2929,0.293,0.293,0.2938,0,0,0.2931,0.2931,0,0,0,0,0,0,0,0,0.2932,0.2933,0.2935,0.2934,0.2934,0.2934,0.2935,0.2938,0.293,0.2932,0.293,0.2929,0.2931,0.2931,0.2932,0.2938,0.2938,0.2931,0.2931,0.2931,0.2931,0,0,0,0,0,0,0,0.2932,0.2933,0.2938,0.2935,0.2934,0.2932,0.2932,0.2936,0.2933,0.2932,0.2931,0.2931,0.2931,0.2932,0.2932,0.2938,0.2931,0.2931,0.2931,0.2931,0.2949,0.295,0,0,0,0,0,0,0.2933,0.2933,0.2938,0.2938,0.2932,0.2933,0.2932,0.2934,0.2933,0.2933,0.2931,0.2931,0.2931,0.2932,0.2932,0.2941,0.2931,0.2931,0.2931,0.2949,0.2949,0.295,0,0,0,0,0,0,0.2932,0.2933,0.2938,0.2935,0.2936,0.2933,0.2935,0.2934,0.2935,0.2933,0.2932,0.2933,0.2931,0.2931,0.2936,0.2941,0.2931,0.2932,0.2949,0.2949,0.295,0.2959,0,0,0,0,0,0,0.2932,0.2933,0.2936,0.2935,0.2936,0.2943,0.2935,0.2935,0.2936,0.2935,0.2934,0.2934,0.2931,0.2936,0.2937,0.2941,0.2932,0.2948,0.2949,0.2949,0.2958,0.2959,0.296,0,0,0,0,0,0.2932,0.2939,0.2937,0.2937,0.294,0.2943,0.2943,0.294,0.2936,0.2939,0.2938,0.2934,0.294,0.2936,0.2937,0.2941,0.2948,0.2949,0.2949,0.2957,0.2959,0.296,0,0,0,0,0,0,0.2941,0.2939,0.2936,0.2943,0.2943,0.2942,0.2946,0.2942,0.2943,0.2943,0.2938,0.2938,0.2944,0.2943,0.2939,0.2949,0.2943,0.2944,0.2949,0.2951,0.2952,0.2952,0.2932,0,0,0,0,0,0.2944,0.2947,0.2945,0.2951,0.2951,0.2948,0.295,0.2947,0.2947,0.2947,0.2946,0.2946,0.2948,0.2949,0.2951,0.2958,0.2957,0.2961,0.2962,0.2963,0.2964,0.2967,0.2969,0.2952,0.2952,0.2952,0,0,0.2949,0.2949,0.2951,0.2953,0.2952,0.2955,0.2948,0.2952,0.2954,0.2948,0.2952,0.2951,0.2951,0.2956,0.2959,0.2956,0.2968,0.2964,0.2965,0.2965,0.2968,0.297,0.2971,0.2953,0.2952,0.2952,0,0,0.2961,0.2961,0.2966,0.2966,0.2966,0.2964,0.2965,0.2964,0.2963,0.2967,0.2962,0.2964,0.2968,0.2968,0.2968,0.2979,0.2975,0.2979,0.2986,0.2989,0.299,0.2992,0.2995,0.2996,0.298,0.298,0.298,0,0.2969,0.2973,0.2969,0.2973,0.2973,0.2968,0.2972,0.2972,0.2973,0.2973,0.297,0.2974,0.2973,0.2978,0.2981,0.2982,0.2982,0.298,0.2991,0.2992,0.2993,0.2996,0.2997,0.2981,0.2981,0.2981,0.2981,0,0.2981,0.2984,0.2988,0.2988,0.299,0.2994,0.299,0.2992,0.2989,0.2987,0.2991,0.299,0.2991,0.2992,0.299,0.2997,0.2995,0.2991,0.2986,0.2995,0.2998,0.2999,0.2982,0.2981,0.2981,0.2981,0,0,0.2999,0.2997,0.2999,0.2998,0.2997,0.2999,0.3003,0.3004,0.3005,0.3005,0.3008,0.301,0.3007,0.3007,0.3004,0.3007,0.3015,0.3003,0.3003,0.3005,0.3022,0.3025,0.3027,0.3012,0.3013,0.3013,0.3022,0,0.3011,0.3017,0.3013,0.302,0.3022,0.3016,0.3019,0.3019,0.3017,0.3018,0.3016,0.3018,0.3013,0.3013,0.3016,0.3013,0.3018,0.3013,0.3014,0.3015,0.3015,0.3028,0.3031,0.304,0.3023,0.3024,0.3024,0,0.3025,0.3025,0.3032,0.303,0.3031,0.3033,0.3034,0.3035,0.3034,0.3033,0.3033,0.3029,0.3032,0.3026,0.303,0.3026,0.3027,0.3026,0.3026,0.3026,0.302,0.3028,0.3043,0.3045,0.3026,0.3026,0.3025,0,0.3037,0.3039,0.3043,0.3043,0.3041,0.3043,0.3042,0.3041,0.3041,0.3041,0.3041,0.3042,0.3042,0.3042,0.3039,0.3035,0.3043,0.3037,0.3041,0.3041,0.3043,0.3043,0.3058,0.3044,0.3044,0.3044,0.3044,0,0.305,0.3054,0.3049,0.3051,0.3055,0.3051,0.3055,0.3054,0.3052,0.3054,0.3049,0.3051,0.3046,0.3047,0.3045,0.3048,0.3048,0.3046,0.3046,0.3047,0.3047,0.3047,0.3046,0.3044,0.3044,0.3044,0.3044,0,0.3064,0.3061,0.3065,0.3062,0.3061,0.3064,0.3062,0.3064,0.3062,0.3064,0.3064,0.306,0.3061,0.3058,0.3058,0.3056,0.3061,0.3059,0.3061,0.3061,0.3065,0.3065,0.308,0.3082,0.3067,0.3067,0.3067,0,0.3073,0.3076,0.3073,0.3074,0.3073,0.3074,0.3075,0.307,0.3071,0.307,0.3072,0.3072,0.3072,0.3074,0.3071,0.3072,0.307,0.3075,0.307,0.3071,0.3069,0.3069,0.3069,0.3076,0.3077,0.3077,0.3077,0,0.3088,0.3086,0.3086,0.3086,0.3087,0.3087,0.3086,0.3087,0.3082,0.3083,0.3084,0.3084,0.3084,0.3085,0.3084,0.3083,0.3079,0.3078,0.3079,0.3081,0.3082,0.3081,0.3064,0.3078,0.3078,0.3078,0.3078,0.3078,0.3099,0.3101,0.31,0.31,0.3099,0.3099,0.31,0.3098,0.3099,0.3098,0.3096,0.3097,0.3095,0.3094,0.3093,0.3094,0.3091,0.3093,0.3093,0.3093,0.3094,0.3082,0.3094,0.3094,0.3094,0.3094,0.3094,0,0.3114,0.3112,0.3113,0.3112,0.3113,0.3109,0.3108,0.3108,0.3109,0.3108,0.3108,0.3109,0.3109,0.3106,0.3106,0.3107,0.3105,0.3107,0.3107,0.3107,0.3097,0.3096,0.3109,0.3109,0.3109,0.3109,0.3109,0.3109,0.3122,0.3125,0.3122,0.3125,0.3123,0.3124,0.3124,0.3123,0.3122,0.3123,0.3123,0.3121,0.3119,0.3118,0.3118,0.3117,0.3117,0.312,0.3118,0.3109,0.3107,0.3106,0.3105,0.312,0.312,0.3128,0.3129,0.3129]}]]